Location: Ferques
(50.8300°N, 1.7599°E)
Time: 04:46:44
(UTC+00:00)

Cosmos 2341 Rocket - Pass Details

Date: 19 May 2025
Orbit: 966 x 1004 km, 82.9° (Epoch: 13 June)

Event Time Altitude Azimuth Distance (km) Brightness Sun altitude
Rises 21:37:02 0° 348° (NNW) 3,697 8.5 -13.4°
Reaches altitude 10° 21:39:35 10° 345° (NNW) 2,740 7.6 -13.6°
Maximum altitude 21:45:44 62° 266° (W) 1,090 4.4 -14.1°
Enters shadow 21:51:17 13° 189° (S) 2,509 5.7 -14.6°
